Погода в Замехове

Украина / Хмельницкая область     48°51′22″N   27°22′39″E
темп.,
°C
ветер,
м/с
пор.,
м/с
влажн.,
%
обл.,
%
осадки,
мм/ч
давл.,
гПа
погр.,
м
22 октября, пт
пт2200:00+15зюз61248100 0.0 1009812
03:00+13юз3663100 0.0 1010126
06:00+12з366997 0.0 1011132
09:00+14з51159100 0.0 1012723
12:00+17зсз793963 0.0 10131360
15:00+18зсз68335 0.0 10131862
18:00+15зюз354393 0.0 101388
21:00+12з365672 0.0 1014108
23 октября, сб
сб2300:00+10з311661 0.0 1015239
03:00+8з3772100 0.0 1016125
06:00+7зсз3581100 0.0 1016106
09:00+9зсз712555 0.0 1018905
12:00+11зсз811415 0.0 10201522
15:00+12зсз710335 0.0 10201836
18:00+9зсз58402 0.0 1021204
21:00+6з355244 0.0 102378
24 октября, вс
вс2400:00+4з37645 0.0 1025145
03:00+3з39785 0.0 1025223
06:00+3зсз411885 0.0 1026348
09:00+3зсз512856 0.0 1028671
12:00+6сз7962100 0.0 10291147
15:00+6сз796077 0.1 10301182
18:00+5сз7105993 0.0 10311114
21:00+6ссз6852100 0.0 10321182
25 октября, пн
пн2500:00+5сз375568 0.0 1033179
03:00+2ссз2272100 0.0 103424
06:00+1ссз22775 0.0 103419
09:00+2ссв12715 0.0 103579
12:00+7вюв11475 0.0 1034792
15:00+9ююв22385 0.0 10331034
18:00+6ююв22473 0.0 103219
21:00+4юв33520 0.0 103333
26 октября, вт
вт2600:00+3юв34550 0.0 103362
03:00+2юв38562 0.0 1032151
06:00+1юв310605 0.0 1031180
09:00+3ююв5125469 0.0 1030386
12:00+9ююв7104064 0.0 1029731
15:00+11ю7933100 0.0 1027951
18:00+8ююв3442100 0.0 102648
21:00+6ююв3352100 0.0 102635